User: anonymous   Login
Location: Newark
(27.9675°N, 86.8869°E)
Time: 11:46:16
(UTC+00:00)
Language:

Transit 2A Rocket - Orbit

View from above orbital plane
View from above orbital plane
View from above satellite
View from above satellite

Ground track
Ground track

The orbit data is extracted from the following two-line orbital elements,

1    47U 60007C   19287.03658196 -.00000035  00000-0  17102-4 0  9993
2    47  66.6645  96.5333 0221853 125.4591 236.7445 14.42053047 99451
Epoch (UTC): 14 October 2019 00:52:40
Eccentricity: 0.0221853
inclination: 66.6645°
perigee height: 593 km
apogee height: 910 km
right ascension of ascending node: 96.5333°
argument of perigee: 125.4591°
revolutions per day: 14.42053047
mean anomaly at epoch: 236.7445°
orbit number at epoch: 9945

The dashed part of the orbit path shows where the satellite is in the earth's shadow,  

DLR